Other Surface Observations
Issued by NWS

Home | Current Version | Previous Version | Text Only | Print | Product List | Glossary On
Versions: 1 2 3 4 5 6 7 8 9 10 11 12 13 14 15 16 17 18 19 20 21 22 23 24 25 26 27 28 29 30 31 32 33 34 35 36 37 38 39 40 41 42 43 44 45 46 47 48 49 50
000
SXUS52 KTAE 261305
OSOTAE
OSOTAE
North Florida/South Alabama/Southwest Georgia Weather Roundup
National Weather Service Tallahassee Florida
800 AM EST WED NOV 26 2014

Note: "fair" indicates few or no clouds below 12,000 feet with no
significant weather and/or obstructions to visibility.

!FLZ017-115-028-034-025-261400
...North Florida...

CITY           SKY/WX    TMP DP  RH WIND       PRES   REMARKS
TALLAHASSEE    MOCLDY    48  43  82 NW7       30.12R WCI  45
APALACHICOLA   CLEAR     48  41  76 NW9       30.14R WCI  44
PERRY          CLOUDY    48  47  96 NW3       30.12R
CROSS CITY       N/A     50  50 100 NW5       30.11R
JACKSONVILLE   CLOUDY    50  49  96 W6        30.02R
$$

!FLZ112-006-005-002-011-261400
...Florida Panhandle...

CITY           SKY/WX    TMP DP  RH WIND       PRES   REMARKS
MARIANNA       CLEAR     43  41  93 W6        30.14R WCI  39
BONIFAY        FAIR      42  38  85 CALM      30.18R
PANAMA CITY NW FAIR      42  37  82 W8        30.17R WCI  37
TYNDALL AFB    NOT AVBL
TYND DRONE APT NOT AVBL
DE FUNIAK SPR  FAIR      38  33  81 NW7       30.18R WCI  33
EGLIN AFB      PTCLDY    41  31  68 NW9       30.19R WCI  35
DESTIN         CLEAR     44  32  62 NW12      30.19R WCI  38
HURLBURT       CLEAR     41  27  57 N14       30.19R WCI  33
CRESTVIEW      CLEAR     40  31  70 NW7       30.20R WCI  35
PENSACOLA      CLEAR     40  30  67 NW9       30.21R WCI  34
$$

!ALZ063-066-261400
...South Alabama...

CITY           SKY/WX    TMP DP  RH WIND       PRES   REMARKS
DOTHAN         CLEAR     41  36  82 W9        30.17R WCI  35
OZARK CAIRNS   CLEAR     40  33  76 W8        30.16R WCI  34
FT RUCKER HELI CLEAR     41  33  73 NW7       30.15R WCI  36
RUCKER HELI 3  FAIR      40  33  78 NW8G15    30.18R WCI  34
RUCKER HELI 2  FAIR      39  34  82 W7        30.13R WCI  34
FLORALA APT    CLEAR     39  32  76 VRB5      30.19R WCI  36
ANDALUSIA      CLEAR     42  31  64 NW6       30.18R WCI  38
TROY           CLEAR     39  31  72 W6        30.16R WCI  35
EUFALA         FAIR      42  41  96 W3        30.12R
MOBILE         CLEAR     34  29  82 NW3       30.23R
$$

!GAZ120>161-261400
...Southwest and South Central Georgia...

CITY           SKY/WX    TMP DP  RH WIND       PRES   REMARKS
THOMASVILLE    FAIR      46  46 100 NW5       30.10R WCI  44
BAINBRIDGE     CLEAR     46  43  87 W7        30.13R WCI  43
MOODY AFB      CLOUDY    47  46  93 W6        30.08R WCI  45
VALDOSTA       CLOUDY    48  46  93 VRB3      30.09R
MOULTRIE       CLOUDY    46  46 100 W6        30.10R WCI  43
BLAKELY        CLEAR     45  41  87 W3        30.13R
ALBANY         PTCLDY    46  43  89 W6        30.12R WCI  43
TIFTON         MOCLDY    46  46  98 W6        30.06S WCI  43
FITZGERALD     CLOUDY    48  46  91 W3        30.08R
CORDELE        FAIR      48  46  93 W6        30.08R WCI  45
AMERICUS       FAIR      43  43 100 W5        30.10R WCI  40
HOMERVILLE     LGT RAIN  50  48  93 NW9       30.07R
$$

!GMZ750-755-770-775-261400
...Coastal and Buoy Obs...

STATION/POSITION TIME  TEMP    WIND        PRES    VSBY  WAVE
                       AIR SEA DIR/SP/G                  HT/PER
                 (UTC) (F)     (DEG/KT/KT) (MB)    (MI)  (FT/S)
KEATON BEACH     1300   49     340/  4/  7 1020.0R
CEDAR KEY        1200   50     340/  7/ 11 1019.1R
C TOWER          1300   51     330/ 20/ 22 1020.3R
APALACHICOLA BUO 1200   59 70  330/ 19/ 25 1019.0R         8/ 7
PANAMA CITY BUOY NOT AVBL
MOBILE BUOY      1155   56 70  340/ 16/ 21 1024.3R         5/ 6
ORANGE BCH AL BU 1200   49 67  330/ 16/ 19 1022.0R         3/ 4
$$



USA.gov is the U.S. government's official web portal to all federal, state and local government web resources and services.